Terug naar catalogus

MACSAT

ActiefCommunicatieSSO
NORAD 58024·PAYLOAD·🇱🇺 Luxembourg

Gelanceerd Oct 9, 2023 vanaf Guiana Space Centre

Loading…

Volgende Passages (komende 24 uur)

TLE

VersSource: Space-Track

Epoch: Sep 13, 2026, 18:35 UTC

1 58024U 23155J   26256.77441822  .00003078  00000-0  14130-3 0  9991
2 58024  97.5736 339.2512 0003824 108.8903 251.2747 15.21180795161790

Volg MACSAT in realtime met AllMySat

Download on the App Store